Location: Tamazert
(32.6352°N, 5.2072°W)
Time: 05:44:59
(UTC+00:00)

Vanguard 2 - Pass Details

Date: 10 October 2022
Orbit: 553 x 2933 km, 32.9° (Epoch: 04 December)

Event Time Altitude Azimuth Distance (km) Brightness Sun altitude
Rises 14:49:58 0° 281° (W) 4,753 12.1 34.9°
Reaches altitude 10° 14:52:38 10° 280° (W) 4,033 11.9 34.4°
Maximum altitude 15:04:16 79° 196° (SSW) 2,422 10.8 32.4°
Drops below altitude 10° 15:21:38 10° 113° (ESE) 5,730 11.7 29.4°
Sets 15:26:15 0° 112° (ESE) 6,780 12.0 28.6°
